Location: Ridgway Nature & Science Center
(38.1460°N, 107.7553°W)
Time: 14:29:51
(UTC-07:00)

Hubble Space Telescope - Pass Details

Date: 03 November 2021
Orbit: 534 x 538 km, 28.5° (Epoch: 06 December)

Event Time Altitude Azimuth Distance (km) Brightness Sun altitude
Rises 19:31:44 0° 249° (WSW) 2,659 5.9 -16.6°
Reaches altitude 10° 19:34:25 10° 233° (SW) 1,769 4.3 -17.2°
Maximum altitude 19:37:27 20° 185° (S) 1,251 2.7 -17.8°
Enters shadow 19:39:20 15° 150° (SSE) 1,468 2.7 -18.1°
